{"data":{"norad_id":56021,"intl_designator":"2023-042AM","name":"STARLINK-5907","alt_names":[],"object_type":"PAYLOAD","status":"ACTIVE","operator":null,"country":"US","launch_date":"2023-03-24","launch_site_code":"AFETR","launch_vehicle":null,"mission":null,"orbit_class":"UNKNOWN","rcs_meters":null,"size_class":null,"mass_kg":null,"dimensions":null,"purposes":["comms"],"wikipedia_slug":null,"has_3d_model":false,"image_url":null,"decayed_at":null,"tle_current":{"epoch":"2026-05-24T20:45:42.454080Z","epoch_age_seconds":80734,"freshness":"FRESH","line1":"1 56021U 23042AM  26144.86507470  .00001282  00000+0  56134-4 0  9994","line2":"2 56021  43.0048 335.1881 0002768 251.4804 108.5747 15.27578931174687","mean_motion":15.27578931,"eccentricity":0.0002768,"inclination_deg":43.0048,"raan_deg":335.1881,"arg_perigee_deg":251.4804,"mean_anomaly_deg":108.5747,"bstar":5.6134e-5,"rev_number":17468,"period_min":94.266814681539,"perigee_km":481.15311981468,"apogee_km":484.9514742095,"semimajor_km":6861.1892970121,"source":"CELESTRAK","updated_at":"2026-05-25T13:38:17.948245Z"}}}